Find OneWeb SL0158

NORAD ID: 48054 Int'l Des: 2021-025 Owner: ONEWEBN Country: UK Constellation: oneweb operational
LEOCIRCULARPOLARONEWEB_TYPE

リアルタイム位置

3D地球を読み込み中...

OneWeb SL0158について

説明を読み込み中...

次回通過

Passes for default location (London). Set your location on the main map for personalized predictions.

高度履歴

Loading altitude history...

軌道要素

1 48054U 21025N 26125.54503773 .00000344 00000-0 90770-3 0 9998
2 48054 87.8956 328.7110 0002022 80.9997 279.1360 13.13471523248031
Epoch: May 5, 2026 • Age: 16 hours

現在のステータス

高度 1237.0 km
速度 7.24 km/s
衛星直下点 -67.97°S, 144.79°W
打ち上げ日 Mar 25, 2021
運用期間 5.1 years
タイプ internet

技術仕様

分類 Payload
質量 148.00 kg
乾燥質量 140.00 kg
総質量 148.00 kg
長さ 1.30 m
直径 1.00 m
スパン 5.00 m
形状 Trapezoid+2 pan
製造者 ONEWUS
バスタイプ ARROW
フェーズステータス In Orbit
所有者/国 ONEWEBN/UK

Most Searched